| time (UTC) | temp F | wind direction | speed knots | gust knots | rain 1hr in | rain 24hr in | rain mn in | humidity % | barometer mb |
| 20260509211521 | 88 | 174 | 0.0 | 2.6 | 0.00 | 0.00 | 0.00 | 68 | 1007.2 |
| 20260509210023 | 87 | 131 | 0.0 | 2.6 | 0.00 | 0.00 | 0.00 | 69 | 1007.4 |
| 20260509204518 | 88 | 68 | 0.0 | 4.3 | 0.00 | 0.00 | 0.00 | 68 | 1007.7 |
| 20260509203022 | 90 | 25 | 3.5 | 7.8 | 0.00 | 0.00 | 0.00 | 65 | 1007.9 |
| 20260509201517 | 90 | 230 | 0.9 | 5.2 | 0.00 | 0.00 | 0.00 | 64 | 1008.0 |
| 20260509200021 | 90 | 128 | 0.0 | 5.2 | 0.00 | 0.00 | 0.00 | 67 | 1008.0 |
| 20260509194513 | 89 | 313 | 0.0 | 2.6 | 0.00 | 0.00 | 0.00 | 70 | 1008.1 |
| 20260509193008 | 87 | 264 | 2.6 | 6.1 | 0.00 | 0.00 | 0.00 | 71 | 1008.5 |
| 20260509191505 | 88 | 169 | 0.0 | 3.5 | 0.00 | 0.00 | 0.00 | 72 | 1008.7 |
| 20260509190003 | 87 | 69 | 0.9 | 6.1 | 0.00 | 0.00 | 0.00 | 71 | 1008.9 |
| 20260509184502 | 87 | 238 | 1.7 | 4.3 | 0.00 | 0.00 | 0.00 | 71 | 1008.9 |
| 20260509183003 | 88 | 242 | 0.0 | 8.7 | 0.00 | 0.00 | 0.00 | 71 | 1009.1 |
| 20260509181615 | 87 | 59 | 0.9 | 3.5 | 0.00 | 0.00 | 0.00 | 73 | 1009.3 |
| 20260509180058 | 86 | 263 | 0.9 | 5.2 | 0.00 | 0.00 | 0.00 | 75 | 1009.7 |
| 20260509174555 | 86 | 332 | 1.7 | 7.0 | 0.00 | 0.00 | 0.00 | 74 | 1009.8 |
| 20260509173101 | 86 | 323 | 1.7 | 4.3 | 0.00 | 0.00 | 0.00 | 75 | 1009.9 |
| 20260509171557 | 85 | 299 | 1.7 | 4.3 | 0.00 | 0.00 | 0.00 | 75 | 1009.8 |
| 20260509170052 | 84 | 312 | 0.0 | 2.6 | 0.00 | 0.00 | 0.00 | 77 | 1009.7 |
| 20260509164551 | 84 | 302 | 3.5 | 6.1 | 0.00 | 0.00 | 0.00 | 78 | 1009.9 |
| 20260509163044 | 84 | 243 | 0.0 | 2.6 | 0.00 | 0.00 | 0.00 | 78 | 1010.0 |
| 20260509161541 | 83 | 198 | 0.0 | 2.6 | 0.00 | 0.00 | 0.00 | 80 | 1010.1 |
| 20260509160039 | 82 | 167 | 3.5 | 7.8 | 0.00 | 0.00 | 0.00 | 82 | 1010.1 |
| 20260509154535 | 81 | 159 | 3.5 | 10.4 | 0.00 | 0.00 | 0.00 | 88 | 1009.8 |
| 20260509153031 | 79 | 206 | 1.7 | 6.1 | 0.00 | 0.00 | 0.00 | 97 | 1010.0 |
| 20260509151526 | 76 | 222 | 2.6 | 5.2 | 0.00 | 0.00 | 0.00 | 99 | 1009.8 |
| 20260509150025 | 75 | 193 | 1.7 | 4.3 | 0.00 | 0.00 | 0.00 | 99 | 1009.7 |
| 20260509144529 | 75 | 248 | 0.9 | 4.3 | 0.00 | 0.00 | 0.00 | 99 | 1009.9 |
| 20260509143022 | 74 | 230 | 1.7 | 3.5 | 0.00 | 0.00 | 0.00 | 99 | 1009.9 |
| 20260509141520 | 74 | 198 | 0.0 | 1.7 | 0.00 | 0.00 | 0.00 | 99 | 1009.8 |
| 20260509140018 | 74 | 167 | 1.7 | 3.5 | 0.00 | 0.00 | 0.00 | 99 | 1009.5 |
| 20260509133013 | 73 | 208 | 0.0 | 1.7 | 0.00 | 0.00 | 0.00 | 99 | 1010.2 |
| 20260509131511 | 73 | 208 | 0.0 | 1.7 | 0.00 | 0.00 | 0.00 | 99 | 1010.1 |
| 20260509130012 | 73 | 235 | 0.0 | 0.0 | 0.00 | 0.01 | 0.00 | 99 | 1010.0 |
| 20260509124509 | 73 | 235 | 0.0 | 0.0 | 0.00 | 0.01 | 0.00 | 99 | 1009.9 |
| 20260509123008 | 73 | 235 | 0.0 | 0.0 | 0.00 | 0.01 | 0.00 | 99 | 1009.9 |
| 20260509121506 | 73 | 235 | 0.0 | 0.0 | 0.00 | 0.01 | 0.00 | 99 | 1009.9 |
| 20260509120006 | 73 | 235 | 0.0 | 1.7 | 0.00 | 0.02 | 0.00 | 99 | 1009.8 |
| 20260509114504 | 73 | 234 | 0.0 | 3.5 | 0.00 | 0.02 | 0.00 | 98 | 1009.6 |
| 20260509113002 | 73 | 285 | 0.0 | 0.0 | 0.00 | 0.02 | 0.00 | 99 | 1009.6 |
| 20260509111502 | 73 | 69 | 0.0 | 0.0 | 0.00 | 0.02 | 0.00 | 98 | 1009.9 |
| 20260509110002 | 73 | 69 | 0.0 | 0.0 | 0.00 | 0.52 | 0.00 | 98 | 1009.9 |
| 20260509104501 | 73 | 69 | 0.0 | 0.0 | 0.00 | 0.52 | 0.00 | 98 | 1009.7 |
| 20260509103109 | 73 | 69 | 0.0 | 1.7 | 0.00 | 0.52 | 0.00 | 98 | 1009.8 |
| 20260509101601 | 73 | 134 | 0.0 | 0.0 | 0.00 | 0.52 | 0.00 | 98 | 1009.7 |
| 20260509094557 | 73 | 5 | 0.0 | 0.0 | 0.00 | 0.52 | 0.00 | 98 | 1009.3 |
| 20260509093059 | 73 | 5 | 0.0 | 0.0 | 0.00 | 0.52 | 0.00 | 98 | 1009.3 |
| 20260509091557 | 73 | 5 | 0.0 | 0.0 | 0.00 | 0.52 | 0.00 | 98 | 1009.6 |
| 20260509090056 | 73 | 5 | 0.0 | 0.0 | 0.00 | 0.52 | 0.00 | 98 | 1009.6 |
| 20260509084558 | 73 | 5 | 0.0 | 0.0 | 0.00 | 0.52 | 0.00 | 98 | 1009.4 |
| 20260509083054 | 73 | 9 | 0.0 | 0.0 | 0.00 | 0.52 | 0.00 | 98 | 1009.8 |
| 20260509081554 | 73 | 9 | 0.0 | 1.7 | 0.00 | 0.52 | 0.00 | 98 | 1010.0 |
| 20260509080057 | 73 | 169 | 0.9 | 2.6 | 0.00 | 0.52 | 0.00 | 98 | 1009.8 |
| 20260509074553 | 73 | 169 | 0.0 | 0.0 | 0.00 | 0.52 | 0.00 | 98 | 1009.9 |
| 20260509073052 | 73 | 169 | 0.0 | 0.0 | 0.00 | 0.52 | 0.00 | 98 | 1009.8 |
| 20260509071552 | 72 | 171 | 0.9 | 4.3 | 0.00 | 0.52 | 0.00 | 98 | 1009.6 |
| 20260509070053 | 72 | 136 | 3.5 | 7.0 | 0.00 | 0.52 | 0.00 | 98 | 1009.4 |
| 20260509064555 | 72 | 148 | 5.2 | 8.7 | 0.00 | 0.52 | 0.00 | 98 | 1009.3 |
| 20260509063048 | 72 | 165 | 3.5 | 7.0 | 0.00 | 0.52 | 0.00 | 98 | 1009.5 |
| 20260509061549 | 72 | 163 | 4.3 | 7.8 | 0.00 | 0.52 | 0.00 | 98 | 1009.5 |
| 20260509060048 | 72 | 151 | 3.5 | 7.0 | 0.00 | 0.52 | 0.00 | 98 | 1010.0 |
| 20260509054549 | 72 | 126 | 2.6 | 9.6 | 0.00 | 0.52 | 0.00 | 97 | 1009.8 |
| 20260509053044 | 72 | 153 | 4.3 | 8.7 | 0.00 | 0.52 | 0.00 | 97 | 1009.7 |
| 20260509051542 | 72 | 138 | 4.3 | 8.7 | 0.00 | 0.52 | 0.00 | 97 | 1009.4 |
| 20260509050045 | 72 | 142 | 4.3 | 7.8 | 0.00 | 0.52 | 0.52 | 97 | 1009.8 |
| 20260509044540 | 72 | 148 | 1.7 | 8.7 | 0.00 | 0.52 | 0.52 | 97 | 1009.9 |
| 20260509043039 | 72 | 98 | 3.5 | 7.0 | 0.00 | 0.52 | 0.52 | 96 | 1009.8 |
| 20260509041538 | 72 | 138 | 2.6 | 6.1 | 0.00 | 0.52 | 0.52 | 96 | 1009.9 |
| 20260509040041 | 72 | 150 | 4.3 | 7.8 | 0.00 | 0.52 | 0.52 | 96 | 1009.7 |
| 20260509034542 | 72 | 109 | 3.5 | 7.8 | 0.00 | 0.52 | 0.52 | 96 | 1009.6 |
| 20260509033036 | 72 | 132 | 3.5 | 6.1 | 0.00 | 0.52 | 0.52 | 96 | 1009.8 |
| 20260509031536 | 73 | 132 | 5.2 | 8.7 | 0.00 | 0.52 | 0.52 | 95 | 1009.6 |
| 20260509030036 | 73 | 146 | 5.2 | 8.7 | 0.00 | 0.52 | 0.52 | 95 | 1009.5 |
| 20260509024535 | 73 | 136 | 5.2 | 8.7 | 0.00 | 0.52 | 0.52 | 95 | 1009.2 |
| 20260509023038 | 73 | 136 | 5.2 | 8.7 | 0.00 | 0.52 | 0.52 | 94 | 1009.0 |
| 20260509021535 | 73 | 146 | 7.0 | 10.4 | 0.00 | 0.52 | 0.52 | 93 | 1008.9 |
| 20260509020037 | 74 | 119 | 3.5 | 7.8 | 0.00 | 0.52 | 0.52 | 93 | 1008.8 |
| 20260509014542 | 74 | 118 | 4.3 | 12.2 | 0.00 | 0.52 | 0.52 | 92 | 1008.8 |
| 20260509013041 | 74 | 123 | 4.3 | 7.8 | 0.00 | 0.52 | 0.52 | 91 | 1008.7 |
| 20260509011535 | 75 | 150 | 4.3 | 10.4 | 0.00 | 0.52 | 0.52 | 90 | 1008.8 |
| 20260509010032 | 75 | 138 | 5.2 | 7.8 | 0.00 | 0.52 | 0.52 | 90 | 1008.6 |
| 20260509004531 | 76 | 107 | 3.5 | 7.8 | 0.00 | 0.52 | 0.52 | 89 | 1008.4 |
| 20260509003034 | 76 | 127 | 3.5 | 8.7 | 0.00 | 0.52 | 0.52 | 88 | 1008.4 |
| 20260509001531 | 76 | 127 | 5.2 | 8.7 | 0.00 | 0.52 | 0.52 | 88 | 1008.4 |
| 20260509000030 | 77 | 125 | 4.3 | 7.8 | 0.00 | 0.52 | 0.52 | 88 | 1008.4 |
| 20260508234529 | 77 | 119 | 5.2 | 8.7 | 0.00 | 0.52 | 0.52 | 87 | 1008.5 |
| 20260508233033 | 77 | 80 | 2.6 | 4.3 | 0.00 | 0.52 | 0.52 | 87 | 1008.5 |
| 20260508231528 | 77 | 113 | 2.6 | 5.2 | 0.00 | 0.52 | 0.52 | 86 | 1008.8 |
| 20260508230027 | 77 | 112 | 2.6 | 5.2 | 0.00 | 0.52 | 0.52 | 86 | 1008.7 |
| 20260508224526 | 77 | 108 | 1.7 | 6.1 | 0.00 | 0.52 | 0.52 | 86 | 1008.8 |
| 20260508223027 | 78 | 123 | 1.7 | 5.2 | 0.00 | 0.52 | 0.52 | 85 | 1008.7 |
| 20260508221526 | 78 | 90 | 3.5 | 7.0 | 0.00 | 0.52 | 0.52 | 85 | 1008.5 |
| 20260508220024 | 78 | 140 | 2.6 | 5.2 | 0.00 | 0.52 | 0.52 | 85 | 1008.8 |
| 20260508214527 | 78 | 85 | 6.1 | 8.7 | 0.00 | 0.52 | 0.52 | 83 | 1008.7 |
| 20260508213021 | 78 | 134 | 3.5 | 6.1 | 0.00 | 0.52 | 0.52 | 84 | 1008.9 |